| time (UTC) | temp F | wind direction | speed MPH | gust MPH | rain 1hr in | rain 24hr in | rain mn in | humidity % | barometer mb |
| 20260504020531 | 54 | 122 | 2.0 | 4.0 | 0.00 | 0.00 | 0.00 | 61 | 1021.5 |
| 20260504020526 | 49 | 95 | 1.0 | 3.0 | 0.00 | 0.00 | 0.00 | 71 | 1023.9 |
| 20260504015702 | 48 | 103 | 1.0 | 2.0 | 0.00 | 0.00 | 0.00 | 80 | 1023.9 |
| 20260504015528 | 54 | 120 | 2.0 | 3.0 | 0.00 | 0.00 | 0.00 | 63 | 1021.6 |
| 20260504014524 | 55 | 90 | 1.0 | 2.0 | 0.00 | 0.00 | 0.00 | 64 | 1021.5 |
| 20260504014517 | 48 | 104 | 1.0 | 2.0 | 0.00 | 0.00 | 0.00 | 83 | 1024.0 |
| 20260504013533 | 49 | 100 | 0.0 | 1.0 | 0.00 | 0.00 | 0.00 | 81 | 1023.9 |
| 20260504013520 | 54 | 84 | 2.0 | 3.0 | 0.00 | 0.00 | 0.00 | 64 | 1021.5 |
| 20260504012529 | 49 | 78 | 1.0 | 2.0 | 0.00 | 0.00 | 0.00 | 85 | 1023.9 |
| 20260504012517 | 53 | 120 | 2.0 | 3.0 | 0.00 | 0.00 | 0.00 | 66 | 1021.6 |
| 20260504011533 | 54 | 132 | 3.0 | 4.0 | 0.00 | 0.00 | 0.00 | 66 | 1021.4 |
| 20260504011524 | 49 | 104 | 1.0 | 2.0 | 0.00 | 0.00 | 0.00 | 85 | 1023.8 |
| 20260504010530 | 54 | 116 | 2.0 | 3.0 | 0.00 | 0.00 | 0.00 | 66 | 1021.5 |
| 20260504010520 | 49 | 103 | 2.0 | 3.0 | 0.00 | 0.00 | 0.00 | 85 | 1023.8 |
| 20260504005526 | 53 | 129 | 3.0 | 4.0 | 0.00 | 0.00 | 0.00 | 65 | 1021.5 |
| 20260504005516 | 49 | 102 | 2.0 | 3.0 | 0.00 | 0.00 | 0.00 | 84 | 1023.9 |
| 20260504004532 | 49 | 89 | 1.0 | 4.0 | 0.00 | 0.00 | 0.00 | 84 | 1023.8 |
| 20260504004522 | 53 | 136 | 2.0 | 3.0 | 0.00 | 0.00 | 0.00 | 64 | 1021.6 |
| 20260504003527 | 49 | 80 | 1.0 | 2.0 | 0.00 | 0.00 | 0.00 | 83 | 1023.8 |
| 20260504003519 | 52 | 144 | 3.0 | 5.0 | 0.00 | 0.00 | 0.00 | 64 | 1021.5 |
| 20260504002543 | 50 | 80 | 0.0 | 2.0 | 0.00 | 0.00 | 0.00 | 84 | 1023.9 |
| 20260504002515 | 52 | 143 | 4.0 | 5.0 | 0.00 | 0.00 | 0.00 | 63 | 1021.8 |
| 20260504001532 | 52 | 130 | 3.0 | 4.0 | 0.00 | 0.00 | 0.00 | 59 | 1021.7 |
| 20260504001519 | 50 | 43 | 0.0 | 2.0 | 0.00 | 0.00 | 0.00 | 83 | 1024.0 |
| 20260504000535 | 50 | 50 | 0.0 | 2.0 | 0.00 | 0.00 | 0.00 | 82 | 1024.1 |
| 20260504000528 | 53 | 126 | 3.0 | 4.0 | 0.00 | 0.00 | 0.00 | 54 | 1021.8 |
| 20260503235645 | 52 | 129 | 3.0 | 4.0 | 0.00 | 0.00 | 0.00 | 55 | 1021.7 |
| 20260503235530 | 49 | 73 | 1.0 | 2.0 | 0.00 | 0.00 | 0.00 | 82 | 1024.0 |
| 20260503234527 | 49 | 45 | 1.0 | 2.0 | 0.00 | 0.00 | 0.00 | 81 | 1024.2 |
| 20260503234521 | 52 | 138 | 3.0 | 5.0 | 0.00 | 0.00 | 0.00 | 58 | 1022.0 |
| 20260503233523 | 49 | 70 | 1.0 | 2.0 | 0.00 | 0.00 | 0.00 | 82 | 1024.2 |
| 20260503233518 | 53 | 145 | 2.0 | 3.0 | 0.00 | 0.00 | 0.00 | 51 | 1022.0 |
| 20260503232534 | 53 | 175 | 1.0 | 3.0 | 0.00 | 0.00 | 0.00 | 48 | 1022.2 |
| 20260503232519 | 49 | 57 | 1.0 | 2.0 | 0.00 | 0.00 | 0.00 | 82 | 1024.4 |
| 20260503231554 | 50 | 46 | 1.0 | 2.0 | 0.00 | 0.00 | 0.00 | 81 | 1024.5 |
| 20260503231530 | 52 | 127 | 2.0 | 4.0 | 0.00 | 0.00 | 0.00 | 56 | 1022.2 |
| 20260503230530 | 49 | 219 | 0.0 | 2.0 | 0.00 | 0.00 | 0.00 | 79 | 1024.6 |
| 20260503230527 | 52 | 113 | 2.0 | 4.0 | 0.00 | 0.00 | 0.00 | 60 | 1022.3 |
| 20260503225606 | 49 | 236 | 0.0 | 2.0 | 0.00 | 0.00 | 0.00 | 80 | 1024.5 |
| 20260503225523 | 52 | 124 | 2.0 | 3.0 | 0.00 | 0.00 | 0.00 | 61 | 1022.4 |
| 20260503224521 | 49 | 71 | 1.0 | 2.0 | 0.00 | 0.00 | 0.00 | 81 | 1024.7 |
| 20260503223538 | 50 | 68 | 1.0 | 3.0 | 0.00 | 0.00 | 0.00 | 81 | 1024.6 |
| 20260503223516 | 53 | 168 | 0.0 | 2.0 | 0.00 | 0.00 | 0.00 | 60 | 1022.6 |
| 20260503222534 | 50 | 3 | 1.0 | 3.0 | 0.00 | 0.00 | 0.00 | 80 | 1024.6 |
| 20260503221609 | 52 | 75 | 1.0 | 3.0 | 0.00 | 0.00 | 0.00 | 71 | 1022.4 |
| 20260503221530 | 50 | 325 | 1.0 | 3.0 | 0.00 | 0.00 | 0.00 | 79 | 1024.7 |
| 20260503220546 | 50 | 223 | 1.0 | 2.0 | 0.00 | 0.00 | 0.00 | 80 | 1024.7 |
| 20260503220525 | 52 | 91 | 2.0 | 3.0 | 0.00 | 0.00 | 0.00 | 70 | 1022.4 |
| 20260503215541 | 49 | 92 | 1.0 | 2.0 | 0.00 | 0.00 | 0.00 | 82 | 1024.5 |
| 20260503215522 | 52 | 76 | 1.0 | 2.0 | 0.00 | 0.00 | 0.00 | 70 | 1022.3 |
| 20260503214539 | 52 | 83 | 1.0 | 2.0 | 0.00 | 0.00 | 0.00 | 69 | 1022.2 |
| 20260503214517 | 50 | 71 | 1.0 | 2.0 | 0.00 | 0.00 | 0.00 | 82 | 1024.4 |
| 20260503213614 | 50 | 276 | 0.0 | 2.0 | 0.00 | 0.00 | 0.00 | 81 | 1024.4 |
| 20260503213535 | 52 | 83 | 2.0 | 3.0 | 0.00 | 0.00 | 0.00 | 70 | 1022.3 |
| 20260503212531 | 52 | 80 | 1.0 | 2.0 | 0.00 | 0.00 | 0.00 | 74 | 1022.3 |
| 20260503212529 | 49 | 0.0 | 1.0 | 0.00 | 0.00 | 0.00 | 83 | 1024.3 | |
| 20260503211528 | 53 | 72 | 1.0 | 3.0 | 0.00 | 0.00 | 0.00 | 72 | 1022.2 |
| 20260503211525 | 47 | 260 | 1.0 | 2.0 | 0.00 | 0.00 | 0.00 | 87 | 1024.3 |
| 20260503210604 | 54 | 66 | 0.0 | 2.0 | 0.00 | 0.00 | 0.00 | 70 | 1022.1 |
| 20260503210521 | 48 | 262 | 2.0 | 5.0 | 0.00 | 0.00 | 0.00 | 85 | 1024.3 |
| 20260503205521 | 54 | 70 | 2.0 | 4.0 | 0.00 | 0.00 | 0.00 | 70 | 1022.0 |
| 20260503205517 | 49 | 139 | 1.0 | 3.0 | 0.00 | 0.00 | 0.00 | 83 | 1024.4 |
| 20260503204534 | 49 | 357 | 0.0 | 2.0 | 0.00 | 0.00 | 0.00 | 82 | 1024.3 |
| 20260503204517 | 53 | 93 | 1.0 | 2.0 | 0.00 | 0.00 | 0.00 | 72 | 1022.1 |
| 20260503203549 | 50 | 329 | 1.0 | 4.0 | 0.00 | 0.00 | 0.00 | 82 | 1024.3 |
| 20260503203534 | 54 | 90 | 1.0 | 3.0 | 0.00 | 0.00 | 0.00 | 74 | 1022.0 |
| 20260503202610 | 54 | 78 | 2.0 | 3.0 | 0.00 | 0.00 | 0.00 | 75 | 1022.1 |
| 20260503202525 | 50 | 356 | 1.0 | 3.0 | 0.00 | 0.00 | 0.00 | 79 | 1024.3 |
| 20260503201526 | 53 | 79 | 2.0 | 3.0 | 0.00 | 0.00 | 0.00 | 76 | 1022.0 |
| 20260503201521 | 50 | 302 | 1.0 | 3.0 | 0.00 | 0.00 | 0.00 | 81 | 1024.4 |
| 20260503200523 | 54 | 84 | 1.0 | 2.0 | 0.00 | 0.00 | 0.00 | 75 | 1022.1 |
| 20260503200518 | 50 | 296 | 1.0 | 3.0 | 0.00 | 0.00 | 0.00 | 83 | 1024.3 |
| 20260503195553 | 50 | 322 | 1.0 | 3.0 | 0.00 | 0.00 | 0.00 | 83 | 1024.3 |
| 20260503195519 | 54 | 63 | 1.0 | 2.0 | 0.00 | 0.00 | 0.00 | 74 | 1022.0 |
| 20260503194550 | 50 | 234 | 1.0 | 5.0 | 0.00 | 0.00 | 0.00 | 82 | 1024.3 |
| 20260503194516 | 54 | 93 | 1.0 | 2.0 | 0.00 | 0.00 | 0.00 | 73 | 1022.0 |
| 20260503193525 | 50 | 0 | 1.0 | 4.0 | 0.00 | 0.00 | 0.00 | 82 | 1024.2 |
| 20260503192529 | 55 | 86 | 1.0 | 2.0 | 0.00 | 0.00 | 0.00 | 73 | 1021.9 |
| 20260503192521 | 50 | 176 | 1.0 | 3.0 | 0.00 | 0.00 | 0.00 | 83 | 1024.1 |
| 20260503191525 | 55 | 84 | 2.0 | 3.0 | 0.00 | 0.00 | 0.00 | 73 | 1021.8 |
| 20260503191517 | 49 | 125 | 2.0 | 4.0 | 0.00 | 0.00 | 0.00 | 87 | 1024.1 |
| 20260503190533 | 47 | 179 | 1.0 | 4.0 | 0.00 | 0.00 | 0.00 | 91 | 1024.0 |
| 20260503190521 | 55 | 124 | 2.0 | 4.0 | 0.00 | 0.00 | 0.00 | 75 | 1021.6 |
| 20260503185549 | 47 | 231 | 3.0 | 6.0 | 0.00 | 0.00 | 0.00 | 92 | 1023.9 |
| 20260503185518 | 54 | 159 | 2.0 | 4.0 | 0.00 | 0.00 | 0.00 | 78 | 1021.6 |
| 20260503184545 | 47 | 187 | 2.0 | 5.0 | 0.00 | 0.00 | 0.00 | 90 | 1023.9 |
| 20260503184534 | 53 | 166 | 3.0 | 6.0 | 0.00 | 0.00 | 0.00 | 79 | 1021.5 |
| 20260503183531 | 54 | 170 | 4.0 | 6.0 | 0.00 | 0.00 | 0.00 | 78 | 1021.3 |
| 20260503183521 | 48 | 228 | 3.0 | 8.0 | 0.00 | 0.00 | 0.00 | 90 | 1023.8 |
| 20260503182537 | 48 | 223 | 3.0 | 9.0 | 0.00 | 0.00 | 0.00 | 88 | 1023.7 |
| 20260503182527 | 54 | 172 | 5.0 | 8.0 | 0.00 | 0.00 | 0.00 | 76 | 1021.2 |
| 20260503181533 | 49 | 168 | 2.0 | 5.0 | 0.00 | 0.00 | 0.00 | 86 | 1023.8 |
| 20260503181523 | 55 | 173 | 6.0 | 9.0 | 0.00 | 0.00 | 0.00 | 75 | 1021.1 |
| 20260503180528 | 49 | 135 | 1.0 | 3.0 | 0.00 | 0.00 | 0.00 | 85 | 1023.7 |
| 20260503180520 | 55 | 173 | 7.0 | 12.0 | 0.00 | 0.00 | 0.00 | 74 | 1021.1 |
| 20260503175524 | 50 | 222 | 2.0 | 5.0 | 0.00 | 0.00 | 0.00 | 82 | 1023.6 |
| 20260503175516 | 56 | 165 | 5.0 | 9.0 | 0.00 | 0.00 | 0.00 | 71 | 1021.0 |
| 20260503174533 | 58 | 168 | 4.0 | 6.0 | 0.00 | 0.00 | 0.00 | 66 | 1021.0 |
| 20260503174520 | 53 | 16 | 2.0 | 5.0 | 0.00 | 0.00 | 0.00 | 79 | 1023.6 |
| 20260503173529 | 58 | 160 | 3.0 | 4.0 | 0.00 | 0.00 | 0.00 | 65 | 1020.9 |
| 20260503173516 | 53 | 3 | 2.0 | 5.0 | 0.00 | 0.00 | 0.00 | 79 | 1023.5 |
| 20260503172532 | 52 | 353 | 2.0 | 8.0 | 0.00 | 0.00 | 0.00 | 80 | 1023.5 |
| 20260503172526 | 59 | 141 | 1.0 | 4.0 | 0.00 | 0.00 | 0.00 | 64 | 1020.8 |
| 20260503171547 | 59 | 157 | 1.0 | 3.0 | 0.00 | 0.00 | 0.00 | 62 | 1020.8 |
| 20260503171528 | 53 | 9 | 2.0 | 4.0 | 0.00 | 0.00 | 0.00 | 78 | 1023.5 |
| 20260503170538 | 60 | 191 | 2.0 | 2.0 | 0.00 | 0.00 | 0.00 | 61 | 1020.8 |
| 20260503170524 | 53 | 6 | 2.0 | 5.0 | 0.00 | 0.00 | 0.00 | 79 | 1023.5 |
| 20260503150553 | 56 | 160 | 5.0 | 11.0 | 0.00 | 0.00 | 0.00 | 71 | 1024.2 |
| 20260503150516 | 67 | 104 | 1.0 | 4.0 | 0.00 | 0.00 | 0.00 | 50 | 1021.6 |
| 20260503130613 | 64 | 172 | 2.0 | 6.0 | 0.00 | 0.00 | 0.00 | 53 | 1022.4 |
| 20260503130524 | 56 | 214 | 4.0 | 13.0 | 0.00 | 0.00 | 0.00 | 67 | 1024.8 |
| 20260503110534 | 58 | 249 | 3.0 | 7.0 | 0.00 | 0.00 | 0.00 | 68 | 1025.2 |
| 20260503110529 | 65 | 6 | 2.0 | 6.0 | 0.00 | 0.00 | 0.00 | 46 | 1022.4 |
| 20260503081545 | 57 | 130 | 2.0 | 7.0 | 0.00 | 0.00 | 0.00 | 60 | 1025.5 |
| 20260503081528 | 59 | 61 | 2.0 | 6.0 | 0.00 | 0.00 | 0.00 | 54 | 1023.3 |
| 20260503080524 | 59 | 54 | 1.0 | 3.0 | 0.00 | 0.00 | 0.00 | 54 | 1023.3 |
| 20260503080521 | 56 | 177 | 2.0 | 6.0 | 0.00 | 0.00 | 0.00 | 62 | 1025.6 |
| 20260503072530 | 58 | 116 | 1.0 | 3.0 | 0.00 | 0.00 | 0.00 | 52 | 1023.3 |
| 20260503072524 | 54 | 133 | 3.0 | 6.0 | 0.00 | 0.00 | 0.00 | 64 | 1025.5 |
| 20260503071527 | 57 | 343 | 0.0 | 2.0 | 0.00 | 0.00 | 0.00 | 54 | 1023.4 |
| 20260503071520 | 54 | 125 | 3.0 | 7.0 | 0.00 | 0.00 | 0.00 | 63 | 1025.5 |
| 20260503070523 | 56 | 58 | 1.0 | 3.0 | 0.00 | 0.00 | 0.00 | 53 | 1023.3 |
| 20260503070516 | 55 | 124 | 2.0 | 6.0 | 0.00 | 0.00 | 0.00 | 61 | 1025.4 |
| 20260503054535 | 52 | 119 | 2.0 | 4.0 | 0.00 | 0.00 | 0.00 | 61 | 1023.1 |
| 20260503054523 | 52 | 85 | 3.0 | 7.0 | 0.00 | 0.00 | 0.00 | 65 | 1024.9 |
| 20260503053531 | 52 | 147 | 3.0 | 6.0 | 0.00 | 0.00 | 0.00 | 60 | 1023.1 |
| 20260503053520 | 51 | 133 | 3.0 | 11.0 | 0.00 | 0.00 | 0.00 | 66 | 1024.9 |
| 20260503052527 | 53 | 97 | 3.0 | 5.0 | 0.00 | 0.00 | 0.00 | 60 | 1023.0 |
| 20260503052515 | 51 | 44 | 2.0 | 7.0 | 0.00 | 0.00 | 0.00 | 66 | 1024.9 |
| 20260503051531 | 51 | 80 | 3.0 | 6.0 | 0.00 | 0.00 | 0.00 | 65 | 1024.7 |
| 20260503051524 | 52 | 92 | 1.0 | 4.0 | 0.00 | 0.00 | 0.00 | 63 | 1023.1 |
| 20260503050540 | 51 | 87 | 1.0 | 4.0 | 0.00 | 0.00 | 0.00 | 64 | 1023.1 |
| 20260503050527 | 49 | 106 | 6.0 | 10.0 | 0.00 | 0.00 | 0.00 | 68 | 1024.5 |
| 20260503045523 | 47 | 131 | 4.0 | 7.0 | 0.00 | 0.00 | 0.00 | 74 | 1024.6 |
| 20260503045517 | 51 | 1 | 2.0 | 5.0 | 0.00 | 0.00 | 0.00 | 63 | 1023.1 |
| 20260503044539 | 45 | 139 | 3.0 | 6.0 | 0.00 | 0.00 | 0.00 | 78 | 1024.6 |
| 20260503044533 | 50 | 315 | 2.0 | 4.0 | 0.00 | 0.00 | 0.00 | 63 | 1023.0 |
| 20260503043555 | 45 | 148 | 2.0 | 7.0 | 0.00 | 0.00 | 0.00 | 79 | 1024.5 |
| 20260503043529 | 50 | 2 | 2.0 | 4.0 | 0.00 | 0.00 | 0.00 | 62 | 1023.0 |
| 20260503042531 | 44 | 177 | 4.0 | 9.0 | 0.00 | 0.00 | 0.00 | 81 | 1024.5 |
| 20260503042526 | 50 | 75 | 2.0 | 5.0 | 0.00 | 0.00 | 0.00 | 60 | 1022.8 |
| 20260503041526 | 44 | 141 | 3.0 | 6.0 | 0.00 | 0.00 | 0.00 | 77 | 1024.4 |
| 20260503041522 | 50 | 162 | 1.0 | 4.0 | 0.00 | 0.00 | 0.00 | 60 | 1022.8 |
| 20260503040543 | 44 | 135 | 3.0 | 8.0 | 0.00 | 0.00 | 0.00 | 77 | 1024.3 |
| 20260503040519 | 50 | 167 | 2.0 | 4.0 | 0.00 | 0.00 | 0.00 | 59 | 1022.8 |
| 20260503035535 | 50 | 192 | 2.0 | 4.0 | 0.00 | 0.00 | 0.00 | 59 | 1022.6 |
| 20260503035518 | 44 | 147 | 3.0 | 8.0 | 0.00 | 0.00 | 0.00 | 76 | 1024.4 |
| 20260503034534 | 46 | 141 | 4.0 | 9.0 | 0.00 | 0.00 | 0.00 | 75 | 1024.3 |
| 20260503034532 | 50 | 21 | 2.0 | 4.0 | 0.00 | 0.00 | 0.00 | 57 | 1022.5 |
| 20260503033530 | 46 | 87 | 2.0 | 5.0 | 0.00 | 0.00 | 0.00 | 75 | 1024.3 |
| 20260503033528 | 50 | 123 | 3.0 | 5.0 | 0.00 | 0.00 | 0.00 | 55 | 1022.5 |
| 20260503032605 | 50 | 112 | 1.0 | 4.0 | 0.00 | 0.00 | 0.00 | 55 | 1022.5 |
| 20260503032546 | 46 | 115 | 3.0 | 5.0 | 0.00 | 0.00 | 0.00 | 74 | 1024.2 |
| 20260503031522 | 46 | 116 | 3.0 | 6.0 | 0.00 | 0.00 | 0.00 | 73 | 1024.3 |
| 20260503030537 | 50 | 104 | 1.0 | 3.0 | 0.00 | 0.00 | 0.00 | 55 | 1022.6 |
| 20260503030517 | 46 | 118 | 3.0 | 6.0 | 0.00 | 0.00 | 0.00 | 74 | 1024.3 |
| 20260503025534 | 50 | 117 | 2.0 | 4.0 | 0.00 | 0.00 | 0.00 | 55 | 1022.7 |
| 20260503024530 | 45 | 132 | 3.0 | 6.0 | 0.00 | 0.00 | 0.00 | 73 | 1024.6 |
| 20260503023526 | 50 | 118 | 2.0 | 3.0 | 0.00 | 0.00 | 0.00 | 54 | 1022.8 |
| 20260503022543 | 50 | 137 | 3.0 | 4.0 | 0.00 | 0.00 | 0.00 | 55 | 1022.9 |
| 20260503022521 | 46 | 147 | 3.0 | 5.0 | 0.00 | 0.00 | 0.00 | 74 | 1024.6 |
| 20260503021519 | 49 | 154 | 3.0 | 5.0 | 0.00 | 0.00 | 0.00 | 55 | 1022.9 |
| 20260503021517 | 47 | 132 | 4.0 | 8.0 | 0.00 | 0.00 | 0.00 | 73 | 1024.6 |